Regional Weather Roundup
Issued by NWS Goodland, KS

Home | Current Version | Previous Version | Text Only | Print | Product List | Glossary Off
Versions: 1 2 3 4 5 6 7 8 9 10 11 12 13 14 15 16 17 18 19 20 21 22 23 24 25 26 27 28 29 30 31 32 33 34 35 36 37 38 39 40 41 42 43 44 45 46 47 48 49 50

000
ASUS43 KGLD 271108
RWRGLD

GOODLAND FORECAST AREA HOURLY WEATHER ROUNDUP
NATIONAL WEATHER SERVICE GOODLAND KS
400 AM MST TUE JAN 27 2015

...OFFICIAL OBSERVATIONS...

CITY           SKY/WX    TMP DP  RH WIND       PRES   REMARKS
GOODLAND KS    CLEAR     41  29  62 W12       30.10F
HILL CITY KS   CLEAR     32  26  78 W6        30.07F
IMPERIAL NEB   CLEAR     30  24  78 CALM      30.07F
MCCOOK NEB     CLEAR     32  28  85 SW5       30.07F
AKRON CO       PTCLDY    43  28  55 SW15      30.12F
BURLINGTON CO  CLEAR     41  28  60 W12       30.13F
LIMON CO       CLEAR     29  23  78 N10       30.18F WCI  20
$$

...UNOFFICIAL OBSERVATIONS...

CITY           SKY/WX    TMP DP  RH WIND       PRES   REMARKS
COLBY KS       CLEAR     36  34  93 W10       30.09F
GOVE KS          N/A     30  32 100 MISG        N/A
NORTON KS      CLEAR     28  23  80 SW8       30.05S
SHARON SPRINGS   N/A     39  31  72 W9          N/A
KIT CARSON CO    N/A     39  26  58 MISG        N/A
YUMA CO          N/A     40  29  64 W16         N/A
$$



USA.gov is the U.S. government's official web portal to all federal, state and local government web resources and services.